When you browse on this site, cookies collect data to enhance your experience and personalize the content and advertising you see.
Visit our Privacy Policy to learn more. By continuing to use the site, you agree to this use of cookies and data.
  • In Hungary
  • List of Countries
  • For 7 days
  • Water Temperature
  • Satellite Maps
  • Weather Map
  • News
  • Weather Widgets
  • user-avatar
    Login

    Hourly Weather Jonkowo

    Today, 21 April, Sunday

    Time Temperature Precipitation Wind Pressure Humidity
    00:00 +4°C° 0 mm 3 mps 757 mmHg 80%
    01:00 +4°C° 0 mm 2 mps 757 mmHg 81%
    02:00 +4°C° 0 mm 2 mps 756 mmHg 81%
    03:00 +4°C° 0 mm 2 mps 756 mmHg 81%
    04:00 +3°C° 0 mm 2 mps 756 mmHg 81%
    05:00 +5°C° 0 mm 2 mps 755 mmHg 74%
    06:00 +6°C° 0 mm 2 mps 755 mmHg 68%
    07:00 +8°C° 0 mm 2 mps 755 mmHg 61%
    08:00 +10°C° 0 mm 2 mps 755 mmHg 56%
    09:00 +12°C° 0 mm 2 mps 755 mmHg 50%
    10:00 +13°C° 0 mm 3 mps 754 mmHg 45%
    11:00 +14°C° 0 mm 3 mps 754 mmHg 44%
    12:00 +15°C° 0 mm 4 mps 754 mmHg 44%
    13:00 +15°C° 0 mm 4 mps 753 mmHg 43%
    14:00 +15°C° 0 mm 4 mps 753 mmHg 45%
    15:00 +14°C° 0 mm 4 mps 753 mmHg 48%
    16:00 +14°C° 0 mm 4 mps 752 mmHg 50%
    17:00 +12°C° 0 mm 4 mps 752 mmHg 56%
    18:00 +10°C° 0 mm 3 mps 752 mmHg 63%
    19:00 +8°C° 0 mm 3 mps 752 mmHg 69%
    20:00 +7°C° 0 mm 3 mps 752 mmHg 72%
    21:00 +6°C° 0 mm 2 mps 752 mmHg 74%
    22:00 +6°C° 0 mm 2 mps 753 mmHg 76%
    23:00 +5°C° 0 mm 2 mps 753 mmHg 81%

    Tomorrow, 22 April, Monday

    Time Temperature Precipitation Wind Pressure Humidity
    00:00 +5°C° 0 mm 2 mps 753 mmHg 87%
    01:00 +5°C° 0 mm 2 mps 753 mmHg 92%
    02:00 +5°C° 0 mm 2 mps 753 mmHg 93%
    03:00 +4°C° 0 mm 2 mps 753 mmHg 95%
    04:00 +4°C° 0 mm 2 mps 753 mmHg 97%
    05:00 +5°C° 0 mm 3 mps 753 mmHg 90%
    06:00 +7°C° 0 mm 3 mps 754 mmHg 84%
    07:00 +8°C° 0 mm 4 mps 754 mmHg 78%
    08:00 +11°C° 0 mm 4 mps 754 mmHg 70%
    09:00 +13°C° 0 mm 5 mps 755 mmHg 61%
    10:00 +15°C° 0 mm 5 mps 755 mmHg 53%
    11:00 +16°C° 0 mm 5 mps 755 mmHg 51%
    12:00 +16°C° 0 mm 5 mps 755 mmHg 49%
    13:00 +17°C° 0 mm 5 mps 755 mmHg 47%
    14:00 +17°C° 0 mm 5 mps 755 mmHg 47%
    15:00 +17°C° 0 mm 5 mps 755 mmHg 47%
    16:00 +17°C° 0 mm 6 mps 755 mmHg 47%
    17:00 +15°C° 0 mm 5 mps 755 mmHg 51%
    18:00 +13°C° 0 mm 4 mps 755 mmHg 55%
    19:00 +12°C° 0 mm 4 mps 755 mmHg 59%
    20:00 +11°C° 0 mm 4 mps 756 mmHg 59%
    21:00 +10°C° 0 mm 4 mps 756 mmHg 59%
    22:00 +10°C° 0 mm 4 mps 756 mmHg 59%
    23:00 +8°C° 0 mm 4 mps 756 mmHg 59%

    Day after tomorrow, 23 April, Tuesday

    Time Temperature Precipitation Wind Pressure Humidity
    00:00 +8°C° 0 mm 4 mps 756 mmHg 58%
    01:00 +7°C° 0 mm 4 mps 756 mmHg 58%
    02:00 +7°C° 0 mm 4 mps 756 mmHg 58%
    03:00 +6°C° 0 mm 4 mps 756 mmHg 58%
    04:00 +6°C° 0 mm 4 mps 756 mmHg 58%
    05:00 +7°C° 0 mm 5 mps 756 mmHg 54%
    06:00 +9°C° 0 mm 6 mps 756 mmHg 50%
    07:00 +10°C° 0 mm 7 mps 756 mmHg 46%
    08:00 +11°C° 0 mm 8 mps 756 mmHg 44%
    09:00 +12°C° 0 mm 8 mps 756 mmHg 41%
    10:00 +13°C° 0 mm 9 mps 756 mmHg 38%
    11:00 +15°C° 0 mm 9 mps 755 mmHg 38%
    12:00 +16°C° 0 mm 9 mps 755 mmHg 37%
    13:00 +16°C° 0 mm 9 mps 755 mmHg 36%
    14:00 +16°C° 0 mm 9 mps 754 mmHg 37%
    15:00 +16°C° 0 mm 8 mps 754 mmHg 38%
    16:00 +16°C° 0 mm 8 mps 754 mmHg 39%
    17:00 +15°C° 0 mm 7 mps 753 mmHg 43%
    18:00 +14°C° 0 mm 6 mps 753 mmHg 47%
    19:00 +12°C° 0 mm 5 mps 753 mmHg 50%
    20:00 +11°C° 0 mm 6 mps 753 mmHg 51%
    21:00 +11°C° 0 mm 6 mps 753 mmHg 51%
    22:00 +10°C° 0 mm 6 mps 753 mmHg 51%
    23:00 +10°C° 0 mm 7 mps 753 mmHg 52%

    24 April, Wednesday

    Time Temperature Precipitation Wind Pressure Humidity
    00:00 +10°C° 0 mm 7 mps 752 mmHg 53%
    01:00 +10°C° 0 mm 7 mps 752 mmHg 54%
    02:00 +10°C° 0 mm 7 mps 752 mmHg 55%
    03:00 +10°C° 0 mm 7 mps 752 mmHg 55%
    04:00 +10°C° 0 mm 8 mps 751 mmHg 56%
    05:00 +10°C° 0 mm 8 mps 751 mmHg 58%
    06:00 +10°C° 0 mm 9 mps 751 mmHg 59%
    07:00 +10°C° 0 mm 9 mps 751 mmHg 60%
    08:00 +11°C° 0.1 mm 9 mps 751 mmHg 61%
    09:00 +11°C° 0.1 mm 9 mps 751 mmHg 62%
    10:00 +11°C° 0.1 mm 9 mps 751 mmHg 63%
    11:00 +12°C° 0 mm 9 mps 750 mmHg 61%
    12:00 +13°C° 0 mm 9 mps 750 mmHg 59%
    13:00 +15°C° 0 mm 9 mps 750 mmHg 57%
    14:00 +16°C° 0 mm 8 mps 750 mmHg 57%
    15:00 +17°C° 0 mm 8 mps 750 mmHg 56%
    16:00 +18°C° 0 mm 7 mps 750 mmHg 56%
    17:00 +17°C° 0 mm 7 mps 750 mmHg 59%
    18:00 +16°C° 0 mm 6 mps 750 mmHg 63%
    19:00 +16°C° 0 mm 5 mps 750 mmHg 67%
    20:00 +15°C° 0 mm 5 mps 750 mmHg 69%
    21:00 +15°C° 0 mm 6 mps 750 mmHg 70%
    22:00 +15°C° 0 mm 6 mps 750 mmHg 72%
    23:00 +14°C° 0 mm 5 mps 750 mmHg 75%

    25 April, Thursday

    Time Temperature Precipitation Wind Pressure Humidity
    00:00 +14°C° 0 mm 5 mps 750 mmHg 77%
    01:00 +13°C° 0 mm 5 mps 750 mmHg 80%
    02:00 +13°C° 0 mm 5 mps 750 mmHg 82%
    03:00 +12°C° 0 mm 5 mps 750 mmHg 84%
    04:00 +12°C° 0 mm 5 mps 750 mmHg 86%
    05:00 +12°C° 0 mm 5 mps 750 mmHg 82%
    06:00 +13°C° 0 mm 5 mps 750 mmHg 78%
    07:00 +14°C° 0 mm 5 mps 750 mmHg 74%
    08:00 +16°C° 0 mm 5 mps 750 mmHg 69%
    09:00 +17°C° 0 mm 5 mps 750 mmHg 64%
    10:00 +20°C° 0 mm 6 mps 750 mmHg 59%
    11:00 +21°C° 0 mm 6 mps 750 mmHg 56%
    12:00 +23°C° 0 mm 6 mps 750 mmHg 53%
    13:00 +24°C° 0 mm 6 mps 749 mmHg 49%
    14:00 +24°C° 0.2 mm 6 mps 749 mmHg 51%
    15:00 +23°C° 0.2 mm 5 mps 749 mmHg 52%
    16:00 +23°C° 0.2 mm 5 mps 748 mmHg 53%
    17:00 +22°C° 0 mm 5 mps 748 mmHg 59%
    18:00 +20°C° 0 mm 4 mps 748 mmHg 64%
    19:00 +19°C° 0 mm 4 mps 748 mmHg 70%
    20:00 +18°C° 0 mm 4 mps 748 mmHg 72%
    21:00 +17°C° 0 mm 4 mps 747 mmHg 75%
    22:00 +17°C° 0 mm 4 mps 747 mmHg 77%
    23:00 +15°C° 0 mm 4 mps 747 mmHg 81%

    26 April, Friday

    Time Temperature Precipitation Wind Pressure Humidity
    00:00 +14°C° 0 mm 4 mps 746 mmHg 84%
    01:00 +14°C° 0 mm 4 mps 746 mmHg 88%
    02:00 +14°C° 0 mm 4 mps 746 mmHg 89%
    03:00 +14°C° 0 mm 4 mps 746 mmHg 89%
    04:00 +13°C° 0 mm 4 mps 746 mmHg 90%
    05:00 +14°C° 0 mm 4 mps 745 mmHg 86%
    06:00 +15°C° 0 mm 4 mps 745 mmHg 83%
    07:00 +17°C° 0 mm 4 mps 745 mmHg 80%
    08:00 +19°C° 0 mm 5 mps 745 mmHg 71%
    09:00 +22°C° 0 mm 5 mps 745 mmHg 62%
    10:00 +25°C° 0 mm 5 mps 745 mmHg 54%
    11:00 +26°C° 0 mm 5 mps 744 mmHg 50%
    12:00 +27°C° 0 mm 6 mps 744 mmHg 46%
    13:00 +28°C° 0 mm 6 mps 743 mmHg 43%
    14:00 +28°C° 0 mm 5 mps 743 mmHg 44%
    15:00 +28°C° 0 mm 4 mps 743 mmHg 45%
    16:00 +27°C° 0 mm 3 mps 743 mmHg 46%
    17:00 +25°C° 0.4 mm 3 mps 742 mmHg 55%
    18:00 +22°C° 0.4 mm 3 mps 742 mmHg 63%
    19:00 +20°C° 0.4 mm 3 mps 742 mmHg 71%
    20:00 +19°C° 0.2 mm 3 mps 743 mmHg 78%
    21:00 +18°C° 0.2 mm 3 mps 743 mmHg 85%
    22:00 +16°C° 0.2 mm 3 mps 743 mmHg 91%
    23:00 +16°C° 0.1 mm 3 mps 743 mmHg 93%
    Show more